DW7875 Weather Reports


Display with metric or nautical units.
time (UTC)temp
F
wind
direction
speed
MPH
gust
MPH
rain 1hr
in
rain 24hr
in
rain mn
in
humidity
%
barometer
mb
20260510091524 58 311 0.0 4.0 0.00 0.00 0.00 71 1010.5
20260510090022 57 243 0.0 3.0 0.00 0.00 0.00 73 1010.4
20260510084520 57 154 0.0 3.0 0.00 0.00 0.00 73 1010.2
20260510083027 57 150 0.0 2.0 0.00 0.00 0.00 73 1009.9
20260510081520 57 151 0.0 1.0 0.00 0.00 0.00 73 1009.9
20260510080015 57 151 0.0 1.0 0.00 0.00 0.00 73 1009.7
20260510074514 57 151 0.0 1.0 0.00 0.00 0.00 73 1009.5
20260510073012 57 151 0.0 1.0 0.00 0.00 0.00 73 1009.6
20260510071511 57 151 0.0 2.0 0.00 0.00 0.00 73 1009.4
20260510070022 58 149 0.0 1.0 0.00 0.00 0.00 72 1009.5
20260510064513 58 149 0.0 1.0 0.00 0.00 0.00 72 1009.3
20260510063011 58 209 0.0 2.0 0.00 0.00 0.00 72 1009.3
20260510061508 58 203 0.0 1.0 0.00 0.00 0.00 72 1009.4
20260510060008 58 203 0.0 0.0 0.00 0.00 0.00 72 1009.3
20260510054510 58 203 0.0 0.0 0.00 0.00 0.00 72 1009.5
20260510053005 58 203 0.0 0.0 0.00 0.00 0.00 72 1009.6
20260510051504 57 203 0.0 1.0 0.00 0.00 0.00 73 1009.6
20260510050004 57 203 0.0 0.0 0.00 0.00 0.00 73 1009.4
20260510044503 58 203 0.0 0.0 0.00 0.00 0.00 73 1009.4
20260510043000 58 203 0.0 0.0 0.00 0.00 0.00 73 1009.6
20260510041612 58 203 0.0 0.0 0.00 0.00 0.00 73 1009.6
20260510040058 59 203 0.0 0.0 0.00 0.00 0.00 72 1009.6
20260510034557 59 203 0.0 0.0 0.00 0.00 0.00 72 1009.4
20260510033057 60 203 0.0 0.0 0.00 0.00 0.00 72 1009.4
20260510031559 61 203 0.0 0.0 0.00 0.00 0.00 72 1009.2
20260510030058 61 203 0.0 0.0 0.00 0.00 0.00 73 1009.1
20260510024600 61 203 0.0 0.0 0.00 0.00 0.00 72 1009.1
20260510023054 61 203 0.0 1.0 0.00 0.00 0.00 71 1009.1
20260510021553 61 203 0.0 1.0 0.00 0.00 0.00 70 1009.0
20260510020054 62 203 0.0 1.0 0.00 0.00 0.00 68 1008.9
20260510014551 62 203 0.0 1.0 0.00 0.00 0.00 67 1008.8
20260510013103 62 203 0.0 1.0 0.00 0.00 0.00 67 1008.8
20260510011550 62 203 0.0 2.0 0.00 0.00 0.00 67 1008.6
20260510004557 62 203 0.0 2.0 0.00 0.00 0.00 67 1008.5
20260510003049 62 186 0.0 1.0 0.00 0.00 0.00 67 1008.5
20260510001547 62 185 0.0 3.0 0.00 0.00 0.00 68 1008.3
20260510000048 63 139 0.0 2.0 0.00 0.00 0.00 68 1008.2
20260509234600 64 73 0.0 2.0 0.00 0.00 0.00 67 1008.3
20260509233045 64 66 0.0 2.0 0.00 0.00 0.00 66 1008.1
20260509231543 65 64 1.0 3.0 0.00 0.00 0.00 65 1008.0
20260509230043 65 141 1.0 4.0 0.00 0.00 0.00 65 1007.9
20260509224542 66 141 1.0 3.0 0.00 0.00 0.00 63 1008.0
20260509223042 66 140 0.0 4.0 0.00 0.00 0.00 63 1008.0
20260509221601 67 147 0.0 3.0 0.00 0.00 0.00 62 1008.1
20260509220052 67 179 0.0 3.0 0.00 0.00 0.00 60 1008.2
20260509214540 68 174 1.0 3.0 0.00 0.00 0.00 59 1008.1
20260509213040 70 127 0.0 2.0 0.00 0.00 0.00 59 1007.9
20260509211538 70 134 1.0 3.0 0.00 0.00 0.00 58 1007.7
20260509210040 70 135 2.0 4.0 0.00 0.00 0.00 58 1007.7
20260509204536 70 129 0.0 3.0 0.00 0.00 0.00 60 1007.7
20260509203041 69 138 1.0 4.0 0.00 0.00 0.00 61 1007.8
20260509201534 68 125 0.0 3.0 0.00 0.00 0.00 63 1008.0
20260509200036 68 117 1.0 3.0 0.00 0.00 0.00 61 1008.2
20260509194530 68 124 1.0 4.0 0.00 0.00 0.00 61 1008.3
20260509193030 67 113 1.0 3.0 0.00 0.00 0.00 62 1008.4
20260509191527 68 140 1.0 4.0 0.00 0.00 0.00 60 1008.8
20260509190040 70 136 1.0 4.0 0.00 0.00 0.00 57 1009.0
20260509184533 69 143 1.0 4.0 0.00 0.00 0.00 59 1009.1
20260509183028 70 135 1.0 4.0 0.00 0.00 0.00 57 1009.2
20260509181521 72 132 2.0 6.0 0.00 0.00 0.00 52 1009.4
20260509180017 72 154 3.0 9.0 0.00 0.00 0.00 42 1009.6
20260509174523 72 210 3.0 8.0 0.00 0.00 0.00 40 1009.7
20260509173016 73 234 1.0 17.0 0.00 0.00 0.00 41 1009.7
20260509171514 72 188 1.0 7.0 0.00 0.00 0.00 40 1009.7
20260509170026 72 240 2.0 9.0 0.00 0.00 0.00 39 1009.8
20260509164511 72 221 2.0 11.0 0.00 0.00 0.00 38 1009.8
20260509163010 73 255 3.0 7.0 0.00 0.00 0.00 37 1009.7
20260509161509 73 249 3.0 15.0 0.00 0.00 0.00 38 1009.9
20260509160005 73 244 4.0 11.0 0.00 0.00 0.00 40 1010.3
20260509154601 72 217 4.0 11.0 0.00 0.00 0.00 40 1010.3
20260509154502 72 189 3.0 11.0 0.00 0.00 0.00 40 1010.3
20260509153101 71 248 4.0 9.0 0.00 0.00 0.00 42 1010.1
20260509151559 70 225 2.0 8.0 0.00 0.00 0.00 47 1010.5
20260509150050 70 174 2.0 8.0 0.00 0.00 0.00 47 1010.7
20260509144550 68 254 3.0 9.0 0.00 0.00 0.00 48 1011.0
20260509143044 67 228 1.0 6.0 0.00 0.00 0.00 50 1011.0
20260509141546 66 113 2.0 11.0 0.00 0.00 0.00 52 1011.1
20260509140038 65 217 2.0 8.0 0.00 0.00 0.00 52 1011.2
20260509134549 64 236 2.0 6.0 0.00 0.00 0.00 53 1011.2
20260509133035 64 219 2.0 6.0 0.00 0.00 0.00 54 1011.2
20260509131549 63 142 2.0 11.0 0.00 0.00 0.00 55 1011.3
20260509130041 62 188 2.0 6.0 0.00 0.00 0.00 56 1011.3
20260509124531 62 222 2.0 7.0 0.00 0.00 0.00 57 1011.4
20260509123029 61 204 1.0 6.0 0.00 0.00 0.00 57 1011.5
20260509121522 60 214 1.0 7.0 0.00 0.00 0.00 60 1011.6
20260509120017 59 195 1.0 9.0 0.00 0.00 0.00 61 1011.6
20260509114515 59 214 1.0 6.0 0.00 0.00 0.00 62 1011.7
20260509113013 58 143 1.0 3.0 0.00 0.00 0.00 63 1011.8
20260509111511 58 221 2.0 6.0 0.00 0.00 0.00 62 1011.7
20260509110019 58 197 3.0 10.0 0.00 0.00 0.00 61 1011.7
20260509104513 58 119 0.0 5.0 0.00 0.00 0.00 61 1011.8
20260509103009 58 190 0.0 5.0 0.00 0.00 0.00 61 1011.5
20260509101518 58 219 0.0 4.0 0.00 0.00 0.00 60 1011.6
20260509100007 58 221 1.0 4.0 0.00 0.00 0.00 59 1011.3
20260509094506 58 186 0.0 4.0 0.00 0.00 0.00 59 1011.3
20260509093016 58 198 0.0 3.0 0.00 0.00 0.00 58 1011.2